Theta_e
336 335 334 337 337 336 337 336 336 335 333 329 325 321 317 314 313 313 315 316 315 316 320 324 327 326 325 326 328 329 330 331 333 334 335 336 336 337 337 337 337 337 337 337 337 336 336 336 336 335 336 335 330 329 327 320 324 331 331 333 335 336 336 335 336 337 337 337 337 337 337 336 335 334 334 334 333 333 332 332 332 331 331 332 333
335 335 334 336 337 336 336 337 336 335 333 329 324 320 316 314 313 313 314 316 315 317 320 325 328 330 331 331 332 333 333 334 334 335 336 337 337 336 336 336 336 336 337 336 335 335 334 334 334 334 334 334 332 330 325 320 325 328 329 332 333 334 334 334 335 335 336 336 336 336 336 335 335 335 334 332 332 331 329 330 331 331 331 332 332
334 334 333 336 336 336 336 337 336 335 333 328 323 319 315 313 313 313 315 317 316 317 321 325 328 331 334 335 335 335 335 335 334 336 337 337 337 336 336 335 335 335 335 333 332 330 326 325 327 330 331 333 333 328 324 327 329 329 330 332 333 333 333 332 334 334 335 335 335 335 335 335 335 334 332 332 331 330 328 328 328 329 330 331 331
334 332 333 335 336 336 337 337 336 335 333 328 321 318 316 313 312 313 315 317 316 317 320 324 328 331 334 335 335 335 335 334 335 336 337 337 337 336 336 335 334 331 328 325 323 319 315 312 314 319 324 331 330 325 327 331 331 331 332 332 333 333 332 331 332 333 334 333 332 331 332 334 334 332 331 330 331 330 328 326 327 328 327 327 328
335 331 332 334 335 335 336 336 335 334 332 326 320 318 317 314 312 312 315 317 317 317 320 325 327 331 334 336 336 335 335 335 335 336 337 336 336 335 335 333 329 323 317 314 312 310 309 308 308 309 314 321 322 324 330 331 331 332 332 332 333 332 332 332 331 332 331 329 329 328 327 330 333 331 329 329 330 330 328 325 326 326 325 324 324
335 330 331 332 334 335 336 335 334 333 331 326 320 320 319 315 312 312 316 317 317 318 321 325 328 331 334 335 335 335 335 335 335 335 335 334 334 333 330 326 320 312 309 309 308 308 308 308 308 307 308 310 314 326 331 330 331 331 331 331 331 331 332 332 330 329 326 324 326 327 326 327 329 329 330 330 330 330 328 323 321 321 320 320 319
336 330 331 331 332 333 334 333 332 332 330 327 324 322 321 316 312 313 315 317 318 318 321 324 327 330 333 334 334 334 334 334 334 334 334 332 331 329 324 317 311 308 309 308 308 309 308 308 307 307 307 306 316 329 330 330 331 329 330 331 331 332 331 330 328 324 322 321 322 321 325 325 324 329 331 330 330 330 326 320 317 318 317 316 315
335 329 329 330 329 330 331 331 330 331 331 330 327 324 321 315 312 313 314 317 318 318 321 324 327 330 332 333 332 332 332 332 332 331 331 329 327 323 316 310 308 308 309 309 308 309 308 307 307 307 307 308 322 330 329 329 329 330 331 332 332 331 330 329 328 326 324 323 320 316 318 321 323 330 331 331 331 327 324 319 317 316 316 314 313
334 329 329 329 327 325 326 327 329 331 332 332 329 324 319 314 312 313 314 316 317 318 320 323 326 329 331 331 331 331 330 330 329 328 327 325 323 318 312 309 309 309 309 309 309 309 308 307 307 308 307 312 325 329 328 329 329 330 331 332 332 332 330 329 329 329 327 325 323 317 316 320 324 329 329 328 326 323 321 319 315 313 313 311 311
333 329 329 328 326 323 323 325 329 332 333 332 328 322 317 313 312 313 314 315 317 318 319 322 325 328 330 331 330 330 329 329 327 325 323 321 318 313 310 309 309 309 309 309 309 309 308 308 307 308 307 313 325 328 328 330 329 330 331 333 333 332 330 329 329 328 327 325 322 317 317 320 322 327 328 325 322 320 319 317 313 311 311 309 310
332 329 329 327 325 321 321 325 330 333 333 332 327 320 315 312 313 314 313 314 316 318 319 321 324 327 329 330 330 329 329 327 325 322 319 316 312 310 309 309 309 310 310 310 310 309 308 308 308 308 307 313 323 327 329 329 328 330 332 332 330 329 327 326 325 324 325 323 319 313 314 317 317 324 326 322 319 316 315 314 311 310 310 309 309
332 330 328 327 325 322 323 326 330 332 333 331 325 318 313 312 313 314 314 314 315 318 319 321 323 325 328 329 329 329 328 327 324 321 318 314 310 310 309 310 310 310 311 311 310 310 309 309 308 308 309 315 323 327 329 329 329 330 331 330 328 327 325 324 324 324 324 321 317 311 312 313 314 319 320 318 316 314 311 311 310 309 309 309 309
332 329 329 327 326 325 326 327 328 330 331 329 323 316 312 311 312 314 314 313 315 317 318 320 320 322 323 325 327 328 328 327 324 321 318 314 311 310 310 310 310 311 311 311 311 311 310 309 309 309 313 320 326 328 329 330 331 331 331 330 328 327 326 325 325 325 322 317 313 311 311 312 313 314 315 316 315 312 310 310 310 309 309 309 310
331 330 329 328 327 327 327 326 325 327 328 327 322 315 312 310 311 313 313 313 314 316 317 318 319 319 320 321 323 325 325 324 323 321 319 315 312 311 310 311 311 311 311 311 311 311 311 310 310 311 317 324 329 331 331 332 332 332 331 330 328 327 326 325 323 321 317 312 311 311 311 311 312 312 312 314 312 310 310 310 310 310 310 310 310
330 331 330 328 328 327 326 325 324 325 326 326 322 317 311 310 310 312 313 313 314 315 315 316 317 318 319 320 322 323 323 322 321 321 320 316 314 312 311 311 311 311 311 311 312 312 312 311 311 314 321 326 329 331 331 332 332 332 331 330 328 326 325 324 321 318 314 310 310 310 311 312 312 312 311 311 311 310 311 311 311 311 311 311 311
332 331 331 329 328 326 326 325 325 325 325 326 322 317 311 309 310 311 312 313 313 314 314 315 316 317 319 319 320 321 321 321 322 321 320 317 314 312 311 311 311 311 312 312 312 312 312 312 312 315 321 324 326 329 330 331 332 332 332 330 327 325 324 323 323 320 314 311 311 311 311 312 312 313 312 312 312 312 312 312 312 311 311 311 312
335 332 331 330 328 326 325 325 325 325 324 323 321 316 311 309 310 310 312 313 313 313 314 314 314 315 316 317 317 318 319 320 321 321 320 316 314 313 312 312 312 312 312 312 312 312 312 312 312 316 320 322 325 329 330 331 331 331 331 329 327 326 324 323 323 320 316 313 311 311 311 312 313 313 313 313 314 313 312 312 312 312 311 311 312
335 332 332 330 327 324 323 323 323 322 322 321 318 315 311 309 310 310 311 312 313 313 313 314 314 314 314 315 315 315 317 318 320 321 320 318 315 313 313 312 312 312 312 312 312 312 311 312 312 316 320 321 325 329 330 330 330 330 330 329 328 326 324 324 323 320 318 315 313 313 312 312 312 313 313 313 314 313 313 313 312 311 312 312 312
334 332 332 330 327 323 321 321 320 320 320 319 316 314 311 310 310 310 310 311 311 312 313 313 314 314 314 314 314 314 315 317 318 321 321 320 317 314 313 313 313 313 313 312 312 312 311 311 311 314 319 321 324 327 328 330 331 332 331 330 328 326 325 326 325 325 322 317 316 316 315 315 314 314 314 313 314 313 313 313 312 311 312 312 312
337 332 333 330 326 323 321 320 320 319 319 316 314 313 312 310 310 310 310 310 311 311 312 312 313 313 314 314 314 314 314 315 317 319 321 320 318 315 315 314 314 314 313 313 312 311 311 310 310 312 316 319 322 326 329 332 333 333 332 330 328 327 327 327 328 330 327 321 319 318 318 318 317 316 315 313 313 313 312 312 312 311 312 311 312
338 333 333 331 326 323 321 320 319 318 317 314 313 313 313 311 311 311 310 311 311 311 311 312 312 313 313 313 313 314 314 315 316 317 319 319 318 317 316 316 316 315 315 314 313 313 311 311 311 312 314 317 321 324 329 332 332 333 333 331 327 326 327 328 330 332 329 326 323 321 319 319 319 318 317 316 313 312 312 312 312 312 311 311 311
337 333 333 331 326 323 321 320 318 317 315 314 314 314 314 314 312 312 311 311 311 311 311 311 311 312 312 313 313 313 313 314 314 315 316 317 317 317 317 317 317 317 316 315 315 314 312 311 312 314 314 316 319 323 327 329 331 332 333 331 327 328 329 330 332 332 331 329 326 322 320 320 320 319 319 318 315 312 311 311 311 311 311 311 310
334 333 333 331 326 323 322 320 318 315 314 314 314 314 314 314 314 314 312 312 311 311 311 310 311 312 312 312 313 313 313 313 313 313 314 315 316 317 317 317 318 318 318 317 317 316 315 314 313 314 315 316 318 321 324 327 329 332 333 331 328 329 329 329 332 332 331 330 327 324 322 320 320 320 320 319 317 314 312 312 312 310 310 310 310
335 334 334 332 327 324 322 322 319 316 315 315 314 314 314 314 314 314 314 313 313 312 311 312 312 312 312 312 312 313 312 313 313 314 314 314 314 316 317 317 317 318 318 318 319 318 317 316 315 316 316 317 318 320 323 324 325 329 332 331 328 330 329 328 331 330 331 330 327 325 323 321 321 321 321 321 319 317 316 315 313 312 311 310 309
335 334 334 333 330 326 324 323 321 319 317 317 317 317 316 315 314 314 314 313 313 313 312 313 313 313 314 313 314 313 313 314 315 315 317 319 319 318 317 317 316 317 318 319 319 320 320 319 318 319 320 320 320 321 322 321 325 328 330 331 331 331 329 330 331 331 332 330 328 327 324 322 322 322 322 321 320 320 319 317 316 315 314 312 312
337 336 335 334 332 329 326 324 322 321 320 321 321 320 318 317 317 316 317 317 317 317 317 318 318 320 321 320 319 319 320 322 321 320 322 326 327 326 324 324 321 319 318 319 319 321 322 322 321 322 322 322 321 321 321 323 330 332 331 333 333 332 330 330 333 333 333 331 329 329 325 323 323 322 322 322 322 322 320 320 319 318 317 316 315
338 337 336 335 333 331 328 326 326 326 325 325 324 321 320 321 322 323 324 327 328 327 328 328 328 330 331 329 328 328 330 331 330 328 328 329 330 329 329 330 330 324 319 318 320 321 323 324 324 324 322 323 321 320 322 326 333 334 334 333 332 331 331 331 333 333 333 332 331 330 326 324 324 323 323 323 323 323 322 322 321 320 319 318 317
340 339 338 337 334 333 331 330 332 332 331 330 325 320 323 326 328 330 331 333 334 334 335 335 334 335 335 334 333 333 334 333 333 332 331 330 329 328 328 331 332 330 324 319 319 321 322 323 325 325 324 323 322 321 323 328 332 334 335 333 332 332 333 332 333 333 333 332 331 331 327 324 325 325 324 324 323 323 323 322 322 322 321 320 319
341 341 340 339 336 335 336 335 336 336 336 334 327 323 327 331 332 333 334 335 335 335 336 335 335 336 335 335 334 334 334 334 334 333 333 331 330 329 329 331 333 334 331 325 321 320 321 323 324 325 325 324 324 324 328 330 332 333 334 334 333 333 332 332 332 332 332 332 332 331 328 325 326 327 325 324 323 323 322 323 323 323 322 321 319
341 341 341 341 338 337 338 338 337 337 337 336 333 331 332 333 335 335 335 335 334 335 335 335 334 335 335 335 335 335 335 335 334 335 334 333 333 331 331 331 332 334 334 332 328 323 320 320 322 323 323 324 324 327 332 333 334 334 334 334 334 333 331 331 331 332 332 332 332 331 328 326 326 328 326 323 323 323 322 324 324 323 322 322 321
342 342 341 341 340 339 340 339 338 338 339 337 336 335 335 335 336 336 336 335 335 335 335 334 334 334 335 335 335 335 335 335 335 335 335 335 335 334 333 333 333 333 333 333 333 330 326 323 322 322 323 322 322 327 334 335 335 335 335 334 333 333 330 330 331 332 333 333 332 331 329 326 326 327 326 323 323 322 323 324 324 323 322 320 321
343 342 341 341 340 340 340 340 339 339 339 337 336 337 337 336 336 336 336 335 335 335 334 335 334 335 335 335 335 335 336 335 335 335 335 335 335 335 335 334 334 334 334 333 333 332 332 330 327 323 324 325 323 327 332 333 334 334 335 334 333 333 331 331 332 332 333 332 332 331 329 327 327 326 324 323 323 322 322 322 322 323 322 320 322
343 342 341 341 341 339 340 340 340 340 339 337 337 337 337 337 337 336 336 336 336 336 335 336 335 335 335 335 335 335 336 335 334 334 334 334 335 335 335 334 334 335 334 333 333 333 333 332 332 329 329 330 329 329 330 330 330 332 335 334 332 333 332 332 333 332 332 332 331 330 330 329 327 326 325 324 323 322 322 321 320 321 321 322 322
343 342 342 342 341 340 340 340 340 339 339 337 336 336 337 337 337 337 337 336 336 336 336 335 334 335 335 335 335 335 335 334 334 334 334 334 334 334 334 334 334 335 335 334 333 333 333 332 332 332 332 333 333 332 332 331 331 332 334 334 332 332 332 331 332 332 331 332 332 332 331 330 328 328 327 325 323 322 321 319 318 318 320 321 321
342 342 342 341 341 340 340 340 340 339 338 337 337 337 338 337 337 337 337 337 337 336 335 334 334 335 335 335 335 334 334 334 335 334 334 334 334 334 334 334 334 334 335 334 333 333 333 333 332 332 332 333 334 333 332 332 333 333 333 334 332 331 332 332 331 331 331 330 331 333 332 330 329 329 327 326 325 323 320 317 315 315 317 318 318
341 342 342 341 341 340 340 340 339 339 338 338 338 337 337 336 336 337 337 337 336 336 335 335 335 335 335 335 335 335 335 335 335 334 333 333 333 333 334 334 333 333 334 334 334 333 333 333 333 333 333 333 333 332 331 331 333 334 334 333 332 331 331 332 331 331 331 329 329 331 332 330 330 330 329 328 327 325 320 317 315 314 314 315 315
341 341 341 341 340 340 339 339 339 338 339 338 338 337 337 337 337 337 336 336 336 336 336 336 336 335 335 335 335 335 335 335 334 334 333 332 332 333 333 333 332 332 333 333 334 333 333 333 334 334 333 333 333 333 332 331 332 334 333 333 333 332 331 331 332 331 330 330 330 330 331 332 330 330 330 330 329 326 321 318 316 315 313 312 312
342 341 341 340 340 339 339 339 338 339 339 339 339 338 337 337 337 336 335 335 335 335 336 336 335 335 335 335 335 335 335 334 333 333 332 331 331 332 332 332 332 332 332 332 333 334 334 334 335 335 334 333 333 333 332 332 332 333 333 333 333 332 332 332 332 331 330 330 331 329 330 331 331 330 330 330 330 327 324 320 318 317 315 313 314
342 342 341 340 339 339 339 339 339 339 339 339 339 338 337 337 336 336 335 334 334 335 335 335 335 336 336 335 335 335 334 333 332 332 331 331 331 332 332 332 332 332 331 331 331 332 333 334 334 333 333 333 332 332 331 331 332 332 332 332 333 332 332 332 331 331 330 330 331 330 329 330 331 331 330 331 330 328 326 322 320 320 319 318 319
340 340 339 339 339 339 339 340 339 338 338 338 338 337 336 335 335 335 334 334 334 334 335 336 337 336 336 336 335 334 333 332 331 331 331 331 332 332 332 332 332 331 331 331 330 330 330 332 333 333 333 332 332 332 332 331 330 331 331 330 331 332 331 331 331 331 330 330 331 330 329 329 331 332 331 331 330 329 328 325 322 322 322 322 321
339 338 338 337 336 338 339 339 336 336 335 336 336 336 335 335 334 333 333 333 332 333 335 336 336 336 337 336 334 331 330 329 330 331 331 331 332 331 331 331 332 331 331 330 329 329 329 330 331 332 332 332 331 332 332 331 330 330 331 329 329 330 330 330 330 330 331 330 330 330 330 329 330 332 331 330 330 329 329 328 326 324 324 324 323
339 339 339 337 335 336 337 336 333 333 334 335 335 334 334 333 333 332 332 331 332 333 334 335 334 335 337 336 332 330 329 327 328 330 329 329 330 330 330 330 330 331 331 330 329 329 329 329 329 330 331 330 330 330 331 331 331 330 330 330 329 329 330 330 330 330 331 331 330 330 330 329 329 331 332 330 330 329 329 329 328 327 327 326 325
339 340 339 338 336 335 336 335 334 335 334 333 332 331 332 332 332 331 330 331 332 332 333 334 333 333 334 333 331 331 330 328 329 329 325 324 327 329 329 329 329 330 330 330 330 330 330 329 329 329 330 330 330 330 330 330 330 330 331 331 330 329 330 329 329 329 331 331 330 330 330 330 328 330 331 331 330 329 329 330 329 328 328 327 326
333 337 339 338 338 336 335 334 333 334 334 333 332 332 332 332 332 331 330 331 332 332 333 333 333 334 334 333 332 333 333 332 332 331 328 327 327 328 329 330 330 330 329 329 329 329 330 330 330 330 330 330 329 329 329 330 329 329 331 331 330 330 330 329 328 328 330 330 330 331 330 330 329 329 331 331 330 330 329 330 330 329 329 328 327
330 336 339 339 338 336 336 335 333 333 334 334 333 332 332 331 330 330 329 330 331 331 332 333 335 335 335 335 335 334 334 334 334 334 333 331 331 331 330 331 331 332 332 330 329 328 329 329 330 331 331 331 330 329 330 330 330 329 329 329 330 330 330 329 328 328 329 330 330 331 330 331 330 329 331 331 330 331 330 330 330 329 328 328 328
334 337 338 338 338 337 336 336 335 335 335 334 334 334 333 333 332 332 332 332 332 332 333 333 334 335 335 334 335 335 334 334 334 334 334 333 333 333 332 332 332 332 333 332 331 330 329 328 329 330 331 330 331 331 330 330 330 329 328 328 328 329 329 329 328 329 330 330 331 331 330 331 331 330 330 331 331 331 330 330 330 329 328 328 328
337 338 338 338 338 338 337 337 337 337 336 336 336 336 336 336 336 336 336 336 334 334 335 334 335 335 335 334 335 335 334 334 334 333 333 333 333 333 333 333 332 332 332 332 332 331 331 330 329 329 330 330 331 332 331 331 331 331 330 329 327 327 329 329 329 329 331 331 331 331 331 331 331 330 330 331 331 331 330 330 330 329 329 328 328
339 339 339 339 338 338 338 338 338 337 337 337 337 337 337 337 337 337 337 337 335 335 335 334 334 334 333 333 334 333 333 332 332 332 332 331 332 332 332 332 332 332 332 333 332 332 331 331 330 330 329 330 330 331 331 331 331 331 330 330 329 328 329 329 329 329 330 331 331 331 331 330 331 330 330 330 331 331 331 330 329 329 329 328 328
339 339 339 338 338 339 338 338 338 337 337 338 337 337 337 336 336 335 335 335 334 333 332 331 331 331 331 331 331 331 330 329 330 330 330 330 330 330 330 330 331 331 332 332 332 332 332 331 331 331 330 329 330 330 330 330 330 330 331 331 330 329 328 329 329 330 330 330 331 331 330 330 331 330 330 331 331 331 331 330 329 329 329 329 328
339 339 339 338 338 338 337 337 337 337 337 337 336 336 336 335 334 334 333 333 332 331 330 331 331 330 330 329 328 328 328 328 328 329 329 330 329 329 328 328 328 329 330 331 331 331 332 331 331 332 331 330 330 331 331 330 331 330 331 331 331 328 327 327 329 330 330 330 330 330 330 329 329 329 330 331 331 331 331 330 329 329 329 329 329
338 338 337 337 337 336 336 336 335 335 335 335 334 334 334 334 333 332 332 331 331 330 330 330 330 329 329 327 326 326 328 329 329 329 329 328 327 326 325 324 325 327 329 330 330 331 331 331 332 332 332 332 332 332 331 331 331 331 330 332 331 329 326 325 327 329 330 330 329 329 329 329 328 328 329 330 331 331 331 330 330 329 329 329 328
Wind_Speed
27 26 25 24 22 21 20 19 18 17 17 17 17 16 15 15 16 15 16 16 16 18 19 20 21 21 21 21 20 18 17 15 15 15 16 16 16 16 15 15 14 13 12 12 11 11 11 11 10 10 11 12 14 13 13 13 14 15 16 18 20 20 19 18 16 17 18 18 19 18 18 17 17 16 16 16 16 16 16 16 16 17 17 17 17
27 26 25 24 22 21 20 19 18 17 17 16 17 16 15 16 16 16 16 16 17 17 18 20 21 21 20 19 18 17 17 16 17 17 17 17 17 16 15 14 13 13 12 11 11 10 10 10 10 10 10 12 13 11 12 15 16 15 15 16 18 18 18 18 17 17 18 18 18 17 17 16 16 15 14 14 14 14 14 15 15 16 16 16 16
25 26 25 24 22 21 21 19 18 17 17 17 17 16 16 16 16 16 16 16 17 17 18 19 20 20 19 18 18 17 17 17 18 18 17 17 16 16 15 14 13 12 10 9 9 9 8 9 9 9 9 11 11 11 17 20 19 18 17 17 17 17 16 16 15 15 16 16 15 15 15 14 14 13 13 12 12 13 13 13 13 14 14 14 15
23 26 25 24 22 21 21 19 18 18 17 17 17 16 16 16 16 16 16 16 17 17 17 18 19 19 18 17 17 17 17 17 17 17 17 16 16 15 14 13 11 9 8 7 8 7 7 8 9 9 10 11 11 15 22 22 20 20 19 17 16 15 14 14 13 13 12 12 11 11 11 10 12 11 10 10 11 12 12 12 12 12 12 12 12
23 26 26 25 23 21 21 20 19 18 18 17 17 16 16 15 16 16 16 17 17 17 17 17 18 19 18 17 17 17 16 16 16 16 16 16 15 14 12 11 9 8 7 8 8 8 8 8 8 8 10 10 12 20 23 20 19 17 16 14 13 12 11 11 11 11 9 8 8 8 8 7 9 10 9 9 9 10 10 11 12 11 11 10 11
23 26 26 26 24 22 21 20 20 19 18 17 17 16 15 15 16 16 17 17 17 17 17 17 18 18 17 16 16 16 15 15 15 15 15 14 14 12 10 10 9 9 9 9 9 9 8 8 8 8 10 11 17 24 22 18 17 15 14 13 12 10 8 8 9 9 7 8 8 8 6 5 9 11 9 9 9 9 9 10 10 10 10 9 9
23 25 25 26 25 24 22 21 20 19 18 17 16 15 14 15 16 16 17 17 17 17 16 17 17 18 17 16 16 15 15 14 14 14 13 12 12 10 9 10 11 11 11 10 9 9 9 9 9 10 12 15 23 26 20 18 16 15 14 13 12 8 6 7 8 8 8 9 9 8 4 5 9 11 9 9 10 9 9 9 9 9 9 9 9
24 25 25 25 25 24 23 22 21 20 18 16 15 14 14 15 16 17 17 17 17 17 16 16 17 17 17 16 15 14 14 14 13 12 12 11 11 10 11 11 12 12 11 11 11 10 11 11 11 13 15 21 27 26 21 18 17 15 14 12 10 6 5 6 5 5 7 9 10 8 5 7 10 11 10 10 10 8 7 7 8 9 9 9 9
24 24 25 25 25 24 23 23 22 20 18 16 15 14 15 16 17 17 17 17 17 17 16 16 17 17 16 15 15 14 14 13 12 12 12 11 11 11 11 12 11 12 12 12 12 12 13 13 14 16 19 25 29 26 22 19 17 16 14 12 8 5 5 6 4 3 5 7 7 7 7 9 11 12 10 8 7 5 5 6 7 10 10 10 10
24 25 25 24 24 24 23 23 22 20 18 16 15 15 16 17 17 17 17 17 17 16 17 17 16 16 16 15 14 14 13 13 12 12 12 11 11 11 11 11 12 12 12 12 13 13 13 14 15 17 21 27 28 25 23 20 18 16 14 11 7 5 5 5 3 3 4 6 7 6 8 9 10 10 7 5 4 4 5 6 7 10 11 11 12
25 25 24 24 24 23 24 23 22 20 18 17 15 15 17 18 17 17 17 17 17 16 17 17 17 16 15 15 14 13 13 12 12 12 11 11 11 11 12 11 12 12 12 12 13 13 13 14 15 18 22 26 26 25 23 20 18 15 12 9 6 4 4 4 5 5 5 7 8 6 8 8 9 9 7 6 5 5 6 6 8 10 10 11 12
26 25 25 24 24 24 24 23 22 20 19 17 16 16 17 18 18 17 17 16 17 16 17 17 17 16 15 14 13 13 12 12 12 12 11 11 12 12 12 11 11 12 12 12 12 13 13 13 15 18 22 25 25 25 23 21 18 14 12 9 7 5 4 6 7 8 7 7 7 6 7 7 9 10 8 8 7 8 8 8 9 10 10 10 11
27 25 24 23 24 24 23 22 21 21 20 18 17 17 18 18 18 17 17 16 16 16 16 16 16 16 15 14 13 12 12 11 11 10 10 11 11 12 12 11 11 11 11 12 12 12 12 13 15 18 22 25 25 24 23 20 18 15 12 9 7 5 5 6 8 8 7 5 6 6 7 8 10 10 9 8 8 8 8 8 9 9 10 10 10
28 25 24 23 24 23 22 21 21 21 20 19 17 17 17 18 18 17 16 16 16 16 15 15 15 15 14 14 13 13 12 12 11 10 9 10 11 11 11 11 11 11 11 11 12 12 12 12 14 18 21 23 24 23 21 19 17 14 11 8 6 5 5 6 8 9 8 7 8 8 7 8 10 9 8 8 8 8 7 7 8 8 9 9 9
26 25 24 23 24 22 21 20 20 20 19 18 17 16 16 17 17 17 16 15 15 15 14 14 14 14 13 13 13 13 12 12 11 10 8 8 10 10 11 11 11 11 11 11 11 11 11 11 14 17 19 21 23 23 21 19 16 13 10 8 6 6 6 7 9 9 9 8 8 8 7 8 8 8 7 7 6 7 6 6 7 7 7 8 8
24 25 24 23 23 22 21 19 19 18 18 17 15 15 15 16 17 17 16 15 15 14 13 13 13 13 13 12 12 12 12 11 11 10 8 8 9 10 10 10 10 10 11 11 11 10 10 11 13 16 17 20 22 22 20 18 15 13 10 7 5 6 6 7 8 9 8 7 7 7 5 5 6 6 6 5 5 5 5 5 5 5 6 7 7
22 24 22 22 21 21 21 19 18 17 17 16 15 14 14 15 16 16 15 15 14 13 12 12 12 12 12 11 11 11 11 11 11 10 9 8 9 10 10 10 10 10 10 11 11 10 9 10 12 15 17 19 21 20 18 16 14 12 9 6 4 5 6 7 7 8 7 6 6 5 4 4 3 4 3 3 3 4 4 4 4 4 5 5 5
20 23 21 20 20 21 21 20 19 18 18 17 16 14 14 15 16 16 15 15 14 12 12 11 11 11 10 10 10 10 10 10 10 10 10 9 8 9 10 10 10 10 9 9 10 10 9 9 11 14 16 18 18 18 17 15 13 11 8 5 3 3 5 6 6 7 7 6 5 4 3 4 3 2 1 1 2 2 2 2 3 3 3 3 3
19 21 19 19 19 20 20 20 19 19 19 18 17 16 15 15 16 15 15 14 13 12 11 10 10 10 9 9 9 9 9 9 9 10 10 9 8 8 9 9 10 9 9 9 9 10 9 9 10 13 16 16 15 17 17 15 13 10 8 5 2 2 3 4 5 6 7 6 6 6 5 5 4 3 1 1 0 0 0 0 1 1 1 1 1
18 20 18 17 17 18 19 19 19 19 19 18 17 16 16 16 15 15 15 14 13 12 12 11 11 10 10 9 9 8 8 8 8 9 9 9 9 8 9 9 10 9 9 9 9 9 9 10 10 13 15 15 14 17 17 16 14 11 8 5 3 1 1 1 3 7 7 7 7 7 6 6 6 5 4 3 3 2 2 2 1 1 1 1 1
20 21 18 18 17 17 17 18 19 19 18 17 17 16 16 16 16 15 14 14 13 13 13 12 11 11 10 10 9 8 8 8 8 8 9 9 9 8 9 9 9 9 9 9 9 9 9 10 11 12 14 14 15 16 16 16 14 11 8 7 4 2 1 1 3 5 6 7 9 8 7 7 7 8 7 6 5 4 4 4 4 3 3 3 2
23 23 19 19 17 17 17 17 18 18 18 17 17 17 16 16 16 15 14 13 13 13 13 12 11 11 10 10 10 10 9 9 9 9 9 9 9 9 9 9 9 9 9 9 9 9 10 11 12 12 13 14 15 16 16 15 14 11 8 8 5 3 3 3 3 4 7 9 10 10 8 7 7 8 8 8 7 5 5 5 6 5 5 4 4
25 24 21 19 17 18 17 17 17 17 17 17 16 15 15 15 14 15 14 13 13 12 12 12 11 10 10 10 10 10 10 9 8 8 8 8 9 9 9 9 9 9 10 10 10 10 10 11 12 13 13 14 15 15 15 13 12 11 9 7 6 5 5 4 4 6 8 10 11 11 9 7 7 8 8 9 7 5 5 5 6 5 5 5 5
24 23 21 20 18 18 18 17 16 16 16 16 15 14 13 13 13 14 13 13 12 12 11 10 10 10 10 10 10 10 9 9 8 8 7 7 7 8 9 9 10 10 10 11 11 11 11 11 12 13 13 14 15 15 14 12 10 10 9 8 7 6 5 5 5 6 9 11 11 12 11 7 7 8 8 8 7 6 5 4 5 5 5 5 5
23 22 21 20 19 18 17 17 16 16 15 15 14 13 13 12 13 13 13 13 12 11 10 9 9 9 9 10 10 10 10 9 9 9 7 6 6 7 8 8 10 10 11 11 12 12 11 12 13 14 14 14 15 15 14 11 8 8 10 8 7 8 7 6 5 7 9 11 11 13 12 8 7 8 8 7 6 6 6 5 5 5 6 5 5
22 21 21 20 18 17 16 16 16 16 15 14 14 13 14 13 13 12 12 11 10 9 8 8 8 8 8 8 9 9 9 8 9 10 9 7 6 7 7 7 9 11 13 13 13 13 13 13 13 14 14 15 15 15 14 11 6 7 9 7 7 10 9 7 7 8 10 12 12 12 12 9 7 7 7 7 6 6 6 6 6 6 6 6 6
21 20 20 19 18 17 16 16 16 16 15 14 13 14 14 13 12 11 11 9 8 8 7 9 8 7 7 8 8 8 8 8 8 9 10 9 9 9 8 8 8 9 12 15 15 14 14 14 14 14 15 16 16 16 14 11 8 8 8 7 8 11 10 9 9 10 12 12 13 12 11 10 8 7 7 7 7 6 5 6 6 6 6 6 5
20 20 19 18 18 17 17 16 15 15 14 14 13 14 13 12 11 11 10 8 7 8 8 9 8 7 7 8 8 8 8 8 9 9 10 10 10 11 10 9 8 8 10 13 16 16 15 15 15 16 16 16 17 17 16 14 11 10 8 7 9 11 11 11 11 12 13 13 14 13 11 10 9 8 7 7 7 6 5 5 6 6 5 5 5
19 19 18 18 18 17 17 15 14 14 13 13 14 13 12 11 11 10 9 8 8 8 8 7 7 7 7 8 9 9 9 9 10 11 11 11 11 12 11 10 9 9 9 10 14 17 17 17 17 17 17 17 18 17 16 15 12 10 9 8 10 12 12 14 14 13 14 14 14 13 12 11 10 9 8 7 6 5 5 4 4 5 5 4 5
17 18 18 17 18 17 16 15 14 13 12 12 13 12 11 10 10 10 8 8 8 7 6 6 6 7 8 8 9 10 10 11 11 12 14 14 13 13 13 12 11 11 12 11 11 15 17 18 19 19 19 19 19 18 17 15 13 11 9 8 11 13 14 16 16 15 14 15 15 14 14 12 10 9 8 6 5 5 4 3 3 4 5 5 5
16 18 18 17 17 17 15 14 13 12 12 11 12 12 10 9 9 8 7 7 7 6 6 6 7 8 9 9 10 11 11 12 12 14 15 16 16 16 15 14 14 14 14 14 13 14 15 16 18 19 20 20 20 20 18 16 15 13 10 10 14 15 16 17 17 17 16 16 16 16 15 13 10 9 7 5 5 5 3 2 3 4 5 5 5
16 17 18 16 16 16 14 14 13 12 12 11 11 11 9 9 8 6 6 7 6 6 6 7 7 8 9 10 11 12 12 13 13 14 15 16 17 17 17 17 17 16 16 17 16 16 16 15 16 18 18 18 20 21 21 19 17 15 12 13 16 16 17 17 17 18 18 19 18 17 16 14 11 8 6 5 4 4 3 3 3 4 5 4 4
16 16 17 16 16 16 14 13 13 12 12 11 10 10 9 8 7 6 6 6 6 7 7 7 7 8 10 11 12 12 13 14 15 15 15 16 17 17 18 18 18 18 17 18 19 18 18 17 16 18 18 17 18 19 20 21 19 17 15 15 16 17 18 19 17 18 18 18 18 18 16 14 10 6 6 5 4 4 3 3 3 3 4 3 3
15 16 17 16 15 15 14 13 13 12 12 11 10 9 8 7 5 5 5 6 7 7 7 8 9 10 10 10 11 12 13 14 15 15 15 17 17 18 19 19 19 20 19 19 20 21 20 20 18 19 19 18 20 20 20 21 19 17 18 19 18 17 19 21 20 18 18 16 16 17 17 14 9 6 6 5 4 3 3 3 3 3 4 4 4
15 17 16 16 15 14 13 13 13 12 11 10 9 8 7 6 4 4 6 7 8 8 8 9 10 10 11 11 11 11 12 13 14 15 16 17 18 18 19 19 19 20 20 20 21 22 22 22 20 21 20 21 23 22 21 22 20 19 20 23 22 18 18 20 19 18 19 19 17 16 16 14 10 6 6 6 4 3 2 2 3 3 4 5 5
17 17 16 16 15 14 13 13 12 11 11 9 8 8 7 6 5 5 7 8 9 9 9 10 11 11 12 12 11 12 12 13 14 16 16 17 18 18 18 18 18 19 19 20 22 23 24 23 22 22 23 23 24 23 23 24 22 21 22 23 23 21 19 19 18 19 20 20 20 17 14 14 11 7 7 6 5 4 2 2 2 3 3 4 4
17 18 17 16 15 14 13 12 11 11 10 9 8 7 5 5 6 6 7 9 9 10 10 11 11 11 12 12 12 13 13 13 14 15 16 17 17 17 17 17 18 18 18 19 21 23 24 24 23 23 24 25 25 24 25 25 24 23 22 22 24 23 21 20 19 20 21 20 20 19 15 13 11 9 8 7 6 5 3 3 2 2 2 2 2
16 18 17 16 15 14 13 12 11 10 10 9 8 6 5 5 5 6 7 8 8 9 10 11 11 11 11 11 12 13 14 14 14 15 15 15 16 15 15 16 18 18 18 19 20 22 24 25 25 24 25 26 28 28 25 24 25 24 22 22 24 23 21 20 19 20 21 20 20 19 17 14 12 10 9 9 8 6 5 4 2 2 3 3 2
14 15 15 15 15 13 13 12 11 11 10 8 7 6 6 5 5 6 7 8 8 9 10 10 10 10 11 11 12 12 13 13 14 14 15 15 15 15 15 16 17 18 19 20 21 22 24 26 26 27 27 27 29 29 25 24 25 24 23 23 23 23 22 21 19 20 21 21 19 19 18 15 13 12 11 10 10 8 7 5 4 4 4 4 3
15 15 14 14 15 14 14 12 11 10 9 9 8 7 6 6 7 8 8 9 10 11 11 9 8 9 10 11 12 12 12 12 13 14 14 15 15 14 14 15 17 18 19 20 21 22 24 26 27 28 29 28 28 28 25 24 24 24 25 24 22 22 23 21 20 21 22 22 20 19 19 17 15 14 13 12 11 10 9 7 6 5 4 4 4
15 15 14 14 14 15 15 14 12 11 10 10 9 8 8 8 8 9 10 11 11 13 12 10 10 9 9 9 10 11 13 14 13 13 14 15 15 15 15 15 15 17 19 20 20 21 22 25 27 28 28 28 27 27 25 24 25 26 26 26 25 24 23 22 22 23 24 24 23 20 19 19 17 16 15 14 13 11 10 9 8 7 6 6 5
16 14 13 12 12 13 14 13 11 10 9 9 8 8 8 8 9 10 12 13 14 15 14 12 11 9 9 10 11 13 15 15 15 15 15 16 16 16 16 15 15 17 19 20 20 21 21 23 25 27 28 28 27 27 26 25 27 28 26 26 27 26 24 24 22 22 24 25 24 21 20 20 19 18 17 16 15 13 12 11 10 9 9 8 7
15 13 12 11 12 12 11 10 10 9 8 7 6 5 7 8 10 11 12 13 14 15 14 11 10 9 10 12 12 14 15 15 15 15 15 15 16 17 17 16 17 18 20 21 22 22 22 23 24 26 27 28 28 27 27 27 27 28 26 25 26 25 23 24 24 23 23 24 25 23 22 22 21 20 19 18 17 15 14 13 12 11 10 9 9
13 13 13 12 11 11 10 10 9 8 7 6 5 5 6 8 10 11 11 12 12 13 12 11 11 10 10 12 12 14 16 16 15 16 16 16 17 18 18 18 18 19 20 22 23 23 23 23 24 26 28 29 29 28 28 27 27 27 25 22 21 21 21 23 25 24 24 24 26 25 23 23 23 21 20 19 18 16 15 14 13 12 12 11 10
15 15 15 13 9 9 8 8 8 7 6 6 6 5 5 7 9 9 9 9 9 11 11 11 12 10 11 12 12 13 15 15 15 16 17 18 19 20 21 21 21 21 22 23 23 23 23 23 24 26 28 30 30 29 28 27 27 28 27 23 19 18 20 23 22 22 23 26 27 26 24 24 25 23 20 20 19 17 16 16 15 14 13 12 12
19 18 16 14 11 9 8 7 7 6 5 4 3 2 1 3 4 4 5 5 5 6 8 10 12 11 12 14 13 13 14 15 15 16 17 19 21 22 23 24 23 23 23 24 25 25 24 24 24 25 27 29 30 30 30 29 28 28 29 28 26 22 20 19 19 19 21 25 27 26 25 25 25 24 21 21 20 18 17 17 17 16 15 14 13
20 19 18 16 13 11 10 9 7 5 4 3 1 1 1 3 3 3 4 5 5 6 7 9 12 13 14 16 16 16 16 16 17 17 17 18 20 22 24 25 25 25 26 27 27 26 25 25 25 25 26 28 29 31 32 31 29 29 29 30 30 30 25 20 20 19 19 23 27 27 26 26 26 25 24 23 21 19 18 19 19 17 16 15 15
19 18 17 16 13 12 11 9 8 6 5 4 3 3 3 4 5 6 6 6 7 9 11 11 12 13 13 15 17 18 18 17 17 18 18 19 20 21 22 24 25 25 26 29 29 28 26 26 26 27 26 27 28 31 32 31 30 31 31 31 30 30 29 27 26 23 21 23 26 27 26 25 25 25 25 24 23 21 20 21 20 18 18 17 16
18 16 16 15 13 12 11 9 8 7 6 6 5 5 4 4 4 5 6 6 7 10 11 11 10 11 10 11 14 16 17 16 16 17 18 19 20 22 23 23 24 24 25 27 28 28 28 27 27 28 28 29 29 31 32 33 33 33 33 34 32 30 29 29 28 26 24 23 25 27 28 26 25 25 25 25 24 23 21 22 21 19 18 17 17
17 16 15 13 12 11 10 9 8 8 8 7 7 6 6 6 6 6 8 9 10 9 9 9 8 9 9 9 11 13 14 15 15 17 19 20 21 23 24 25 25 24 25 26 26 26 28 30 30 30 30 30 30 30 32 34 35 35 35 34 33 32 30 29 29 28 25 24 24 24 26 28 27 27 28 28 27 25 23 23 22 20 19 18 18
14 13 14 12 11 11 10 10 10 9 9 7 7 7 8 8 7 7 9 9 9 9 9 9 9 10 11 12 12 12 13 14 15 17 19 21 23 24 25 26 26 25 25 26 26 25 27 28 30 32 32 31 30 30 33 34 34 35 36 34 33 33 33 32 31 30 29 28 26 24 24 27 29 28 28 28 28 27 25 25 24 23 20 18 19
Wind_Direction
160 155 154 148 148 147 144 141 133 129 121 115 112 112 109 102 96 90 87 90 100 110 117 118 118 119 119 120 119 120 118 116 112 108 104 103 103 101 100 97 96 94 94 94 95 96 95 95 94 95 96 98 98 91 76 81 97 93 87 87 87 87 85 86 87 89 89 90 89 89 88 87 87 85 84 85 85 87 87 86 85 85 84 83 82
159 155 154 148 150 147 145 141 135 130 123 117 114 117 113 108 101 95 93 94 104 112 119 120 120 120 120 119 119 119 117 115 112 107 103 102 101 100 98 96 96 94 95 96 98 98 99 101 99 100 101 103 102 90 82 93 98 94 93 93 90 87 86 86 84 84 86 88 88 88 87 85 83 82 80 80 83 85 87 87 85 85 86 86 85
161 155 152 148 150 148 146 142 137 132 124 120 118 121 118 113 106 100 97 98 107 114 120 121 121 121 119 118 117 117 116 115 112 108 104 102 101 100 99 98 98 100 103 105 108 108 110 114 113 114 112 113 109 96 97 99 96 94 96 95 91 86 85 86 86 85 83 82 79 79 81 80 77 76 76 77 81 83 85 87 87 87 88 89 89
164 155 152 148 151 149 147 144 139 133 126 123 122 125 123 118 109 104 101 103 109 115 120 122 123 121 119 117 116 116 115 114 112 109 107 106 105 104 104 105 108 112 114 115 113 110 110 111 117 124 128 129 119 107 105 102 97 95 93 91 89 84 81 86 93 90 87 80 68 59 60 69 75 71 72 76 79 82 84 87 88 89 92 93 93
165 158 154 149 151 151 148 147 141 135 130 128 127 128 127 121 112 107 105 107 111 116 121 123 124 122 120 118 116 116 114 113 112 111 111 111 111 111 113 115 116 114 107 105 103 101 99 98 107 120 131 136 124 114 111 107 104 100 95 91 84 79 76 82 94 94 88 75 54 38 39 62 78 72 70 76 78 81 84 87 89 88 90 91 91
167 161 156 152 152 151 151 149 142 137 134 132 130 130 129 124 116 110 110 111 114 118 122 125 125 124 122 120 118 117 115 114 112 113 113 114 114 115 116 117 112 103 97 95 93 93 91 94 102 112 124 128 121 118 117 114 111 106 97 88 77 71 72 82 94 92 81 60 40 23 37 82 88 80 76 78 79 79 82 88 91 92 92 93 95
169 163 158 155 153 152 152 150 144 140 139 136 133 132 130 127 120 115 115 115 117 120 123 126 125 126 125 122 121 119 118 115 113 113 112 113 112 110 109 108 102 96 93 91 90 90 90 94 101 111 118 121 123 123 123 121 114 105 94 84 78 74 80 95 93 81 68 53 37 25 63 112 97 93 89 87 86 86 89 86 87 93 95 95 98
167 165 161 158 156 155 154 151 146 144 142 140 136 133 134 132 126 121 120 120 120 122 124 127 128 129 128 126 124 122 120 116 115 114 112 112 108 105 104 101 95 94 94 93 91 89 93 97 103 111 117 123 127 127 126 121 111 101 94 88 85 84 87 95 95 74 58 51 42 44 103 123 110 107 102 100 100 101 94 76 78 90 94 94 97
168 166 163 161 160 158 155 152 149 148 145 143 140 137 139 138 132 126 125 124 123 124 126 129 131 132 132 130 128 125 123 120 118 117 116 114 110 108 103 99 96 96 96 95 92 90 96 101 107 114 121 129 131 128 125 118 109 102 97 96 98 97 82 83 98 78 49 47 38 53 108 122 122 120 117 123 120 110 81 64 74 88 92 94 99
170 167 166 165 163 160 156 154 152 150 148 146 142 141 145 142 137 132 128 127 127 127 128 131 133 134 135 133 131 129 126 124 121 120 119 118 115 110 105 102 101 101 99 98 96 96 99 104 111 118 126 132 132 128 124 118 111 105 100 102 112 105 78 79 89 64 39 31 21 59 113 123 125 121 123 143 131 105 79 68 77 85 87 88 93
171 168 168 167 165 160 157 155 153 152 150 148 145 145 147 145 141 137 132 131 131 131 131 133 135 136 136 136 134 132 129 127 124 123 123 122 119 113 110 107 106 106 103 102 101 101 102 107 114 121 129 133 133 129 124 120 116 111 110 118 127 113 76 62 51 36 23 14 18 67 116 121 115 110 111 117 105 97 91 86 84 84 84 84 87
171 169 168 168 164 159 157 155 154 153 151 149 148 148 149 149 147 142 136 133 135 137 137 135 135 135 136 137 136 134 132 129 127 127 127 125 122 119 117 113 111 110 108 106 105 107 108 110 117 124 130 132 131 128 124 124 124 125 130 141 142 123 86 56 40 26 11 6 24 68 110 113 105 102 102 101 95 93 93 93 90 88 85 85 85
168 168 168 167 162 158 156 154 154 152 152 152 151 150 151 153 151 146 140 137 140 142 141 138 135 135 136 137 137 137 136 133 130 130 131 129 126 125 123 120 117 114 112 110 110 113 115 116 121 129 132 131 129 127 126 127 130 134 140 146 141 120 94 64 46 28 14 22 45 68 97 104 101 98 98 98 97 95 93 91 88 88 85 82 82
165 165 165 165 160 157 156 154 154 153 154 153 152 152 154 156 155 151 146 143 143 145 144 140 137 136 137 139 140 140 139 135 133 134 136 135 132 131 129 126 123 121 119 116 117 117 119 121 126 133 134 132 129 128 129 129 131 134 138 141 136 115 92 69 53 35 26 42 61 72 84 91 92 92 96 96 96 97 94 91 87 86 84 83 83
166 163 163 163 158 156 156 155 155 154 154 153 154 155 156 158 157 156 153 148 145 146 145 142 141 140 142 143 145 144 142 139 137 140 143 144 141 138 136 134 131 131 129 125 123 122 121 123 131 138 138 135 132 132 132 132 132 133 140 142 132 108 82 63 51 41 35 43 58 68 76 84 87 86 87 88 92 96 95 93 90 87 85 85 85
167 165 163 161 157 155 155 155 155 154 154 154 157 157 158 159 159 160 157 153 148 147 147 146 146 146 149 149 148 149 148 148 146 149 153 155 151 147 144 143 141 140 140 135 132 130 126 125 134 141 142 139 135 134 134 133 134 138 148 146 125 101 82 69 54 45 40 42 51 56 56 66 83 86 84 85 87 89 92 94 91 90 86 85 83
167 166 164 161 158 156 156 156 155 154 154 156 159 159 159 160 161 162 160 158 153 151 152 149 150 150 153 153 152 152 153 155 156 158 163 167 161 156 154 152 153 151 150 146 141 139 136 132 136 143 146 142 137 136 135 134 138 145 154 155 129 103 86 74 56 43 38 39 45 47 37 33 50 75 83 91 94 93 95 96 89 83 78 81 85
166 167 164 164 161 157 158 156 156 156 157 159 161 161 159 161 161 161 162 163 159 157 157 156 157 154 156 158 158 157 156 157 158 163 170 176 171 167 164 162 163 161 160 157 151 149 148 146 142 147 151 148 143 140 138 138 140 146 158 167 147 101 80 66 53 43 34 32 36 31 19 359 353 26 58 71 102 111 112 110 97 86 76 74 73
166 168 165 168 163 158 160 158 160 159 160 162 161 161 159 160 160 161 165 166 165 162 162 165 166 163 166 167 166 162 158 157 159 166 174 182 182 178 176 174 174 170 170 168 161 158 158 160 154 153 156 156 151 145 144 142 142 151 166 179 180 112 84 70 50 31 17 16 19 11 3 346 333 334 328 313 300 97 75 104 105 117 84 60 43
168 169 167 172 166 162 163 160 162 161 163 164 162 162 159 160 160 164 168 169 169 168 171 176 176 174 179 178 173 168 163 165 166 171 178 187 191 189 189 187 184 180 180 179 172 168 167 168 165 162 163 165 161 153 150 148 149 158 172 192 213 199 105 78 28 13 5 7 1 350 349 345 337 328 313 295 291 296 289 280 266 238 246 260 290
172 170 169 173 168 166 165 163 164 163 165 163 163 163 160 161 162 167 171 173 173 175 180 184 186 184 188 187 180 176 177 182 181 182 185 191 199 200 200 201 197 191 189 189 183 178 176 173 171 169 168 169 167 161 156 154 156 159 176 204 227 264 310 335 6 4 355 353 348 338 331 330 331 327 319 309 296 289 281 277 277 270 265 265 279
172 170 172 174 170 168 167 167 166 165 166 164 165 164 163 163 163 169 174 178 179 181 185 187 191 191 194 193 190 188 188 193 194 194 192 192 201 210 212 211 211 205 200 199 194 188 184 181 176 173 172 171 170 166 161 158 160 160 180 215 238 266 286 299 333 343 338 340 342 341 330 320 325 325 321 315 302 290 281 281 287 284 280 278 281
171 171 172 172 172 172 170 170 167 166 165 165 166 166 166 164 165 171 176 181 183 185 185 188 191 192 194 196 199 200 198 201 203 205 201 197 201 213 222 222 221 219 214 210 204 197 191 188 183 179 176 173 171 168 165 162 163 164 185 231 252 256 273 288 313 329 331 333 337 343 338 324 327 325 320 317 308 299 292 290 294 291 290 290 287
170 173 172 172 176 174 172 170 167 166 165 165 165 164 164 166 171 176 180 183 185 186 185 191 193 192 195 199 207 212 213 212 213 218 208 198 202 212 223 230 232 231 227 222 215 207 198 194 190 185 180 177 174 173 172 166 162 164 188 234 257 254 264 281 310 327 326 328 331 341 342 331 328 324 320 319 311 309 311 307 304 299 299 299 298
170 174 174 176 177 175 174 170 168 166 165 166 163 161 161 166 176 180 183 185 186 187 188 198 200 199 203 207 211 218 226 228 230 236 224 202 204 219 226 233 236 237 236 233 225 217 207 200 196 191 185 185 183 181 180 174 165 159 179 211 255 266 273 280 303 317 314 319 324 336 341 333 326 323 323 324 316 314 315 309 301 298 299 299 300
169 175 178 180 177 176 176 171 168 167 167 167 164 161 161 166 176 180 183 185 187 186 188 198 204 207 213 216 215 220 229 236 237 243 246 232 222 231 237 241 239 236 236 236 233 226 217 210 204 198 192 192 192 190 186 183 176 159 171 190 237 264 279 280 286 296 299 309 314 326 336 329 324 322 319 321 318 315 311 305 297 292 293 294 294
168 175 182 183 178 177 177 173 168 168 169 167 167 164 163 169 177 181 183 186 187 186 195 202 208 215 224 228 225 230 239 248 247 244 250 249 247 250 254 254 248 240 235 234 235 231 224 219 213 207 201 199 198 197 198 202 195 175 178 191 223 250 272 279 280 283 287 296 302 314 328 324 318 316 312 314 315 314 308 299 293 288 288 286 284
169 174 182 182 179 180 179 177 171 170 168 164 169 167 166 176 183 187 188 192 193 196 209 214 216 217 228 236 236 240 244 252 256 253 252 251 255 260 261 259 257 252 241 235 233 232 228 225 222 217 213 211 210 211 216 221 207 190 194 201 222 243 263 276 278 276 278 284 292 303 316 317 311 310 309 311 310 305 298 288 284 286 288 283 276
175 175 180 181 181 184 182 180 176 171 167 164 168 169 175 184 190 196 197 200 203 208 217 226 230 223 229 239 241 246 247 250 253 255 257 258 260 260 262 262 260 257 253 246 238 234 230 228 228 226 224 222 222 223 224 224 210 199 206 213 227 241 258 271 274 272 272 276 285 294 305 309 306 305 304 306 307 301 299 288 282 287 287 282 271
177 178 180 180 182 185 184 182 178 173 170 167 167 173 184 192 198 203 205 209 212 218 224 236 247 241 242 245 250 257 258 257 256 257 260 264 266 264 267 269 263 258 257 256 248 241 234 230 230 231 231 229 228 227 224 224 218 214 221 233 237 242 253 263 270 270 268 272 281 289 297 302 303 300 295 297 303 304 304 280 271 282 282 274 259
179 179 178 182 183 185 186 182 179 178 175 172 171 176 187 198 207 207 208 219 223 229 235 245 252 252 255 258 264 268 269 268 265 263 263 265 267 268 271 273 270 267 265 259 250 246 239 233 230 232 234 231 228 225 223 224 224 223 231 247 241 237 246 256 266 268 267 271 278 286 292 298 301 296 287 291 300 301 294 253 252 265 275 273 247
180 179 177 182 184 186 188 185 184 183 181 180 176 179 192 205 215 214 214 228 237 244 251 260 261 259 264 270 274 273 273 276 276 272 266 264 265 269 271 272 272 271 271 266 257 252 248 244 234 229 229 227 225 223 225 228 229 229 231 242 237 232 242 253 262 267 270 273 276 282 287 294 299 291 277 280 288 291 286 265 254 246 267 277 228
177 177 178 180 184 186 187 188 188 187 188 190 185 187 201 213 219 220 223 237 251 261 267 275 274 271 273 281 285 284 284 285 288 283 274 271 269 270 270 269 269 269 269 265 262 260 256 253 243 232 228 225 224 224 229 233 234 236 232 235 235 230 235 242 250 259 267 271 275 278 284 292 290 277 267 270 272 277 285 281 267 235 247 262 215
176 177 177 176 179 183 185 187 186 189 194 195 192 193 204 214 222 233 243 254 263 271 278 280 279 277 279 285 289 290 290 290 291 291 286 284 281 278 275 273 270 268 266 261 259 261 259 257 250 243 236 233 233 230 235 239 238 241 237 234 233 229 234 240 246 253 256 262 270 273 281 287 275 263 261 257 258 261 275 280 278 244 218 222 225
172 173 173 172 174 177 181 184 184 189 194 194 193 192 198 208 221 246 258 265 267 270 276 279 279 281 286 289 290 290 291 290 291 293 292 290 289 288 286 282 275 269 265 260 257 257 258 257 252 248 244 242 244 240 241 243 242 243 241 236 234 231 237 244 249 252 254 261 265 263 275 280 264 255 251 243 251 253 264 268 272 255 220 220 234
163 165 167 167 170 173 176 181 184 187 189 191 193 193 194 202 219 237 252 262 266 271 274 277 280 284 291 295 296 298 297 296 295 294 293 291 291 290 288 285 279 271 263 259 257 255 255 255 252 249 245 247 252 250 247 248 246 244 242 240 238 237 240 247 250 249 252 260 261 256 266 272 260 249 243 242 249 243 243 248 257 257 233 232 230
160 159 163 165 168 169 169 175 181 184 186 190 193 197 202 212 229 241 256 265 267 273 271 274 281 285 293 301 304 305 303 301 297 293 293 293 292 289 285 283 280 275 266 260 258 255 254 255 253 249 248 250 252 251 247 246 247 249 251 248 244 241 243 249 250 248 251 253 252 252 257 261 257 248 243 242 239 233 230 225 233 235 212 202 191
161 159 162 166 167 164 162 166 172 178 181 185 188 196 212 226 242 250 261 269 270 273 275 279 287 290 296 303 306 308 308 305 299 294 293 294 292 288 283 281 279 276 271 265 260 257 256 256 256 254 255 255 256 256 252 248 247 249 255 253 248 247 246 250 250 246 248 248 246 251 254 254 253 249 244 238 232 229 224 211 196 188 170 156 150
166 164 165 166 166 162 160 163 169 173 174 179 187 200 216 227 241 254 264 273 277 278 282 286 291 298 303 310 312 312 310 304 297 293 294 296 296 293 287 283 280 275 273 270 267 263 260 259 260 261 262 261 260 261 258 255 249 245 249 251 251 251 249 252 252 246 246 247 245 248 251 248 245 248 243 234 231 227 222 214 198 179 165 160 158
171 170 169 170 171 167 164 168 171 173 176 182 192 204 219 231 241 253 261 268 274 274 278 286 296 305 314 322 320 314 304 291 285 286 290 294 296 296 290 285 282 277 273 271 271 269 265 262 261 264 267 267 266 264 260 258 253 244 243 246 250 253 251 251 251 250 249 248 244 245 248 244 238 242 240 233 228 223 220 219 211 197 184 181 181
170 170 168 171 178 176 173 175 176 181 186 192 200 209 221 236 246 254 259 263 267 270 277 288 297 309 321 321 310 299 294 291 290 288 290 292 293 294 291 285 282 278 274 273 272 271 268 264 261 261 263 265 266 264 263 260 255 249 245 244 247 251 253 253 249 247 248 247 246 243 243 242 237 236 237 233 226 221 220 219 216 212 205 199 196
167 170 167 166 173 175 177 179 181 188 195 202 211 223 236 245 252 257 262 263 262 265 272 281 291 303 309 299 291 290 292 296 298 297 296 297 297 295 292 288 281 275 274 272 271 270 268 265 261 257 255 257 259 260 259 256 254 255 252 247 246 249 252 254 251 247 243 243 245 241 236 238 238 234 235 233 226 222 223 221 218 216 210 204 200
162 173 171 157 156 159 169 179 184 195 204 215 226 247 258 258 260 263 264 264 262 262 264 274 291 302 294 283 284 289 289 288 290 292 294 296 297 295 290 287 282 278 276 274 273 272 271 270 265 259 254 253 255 255 254 253 254 255 255 251 249 251 251 249 249 248 245 243 241 238 234 235 237 234 233 233 229 227 225 222 222 219 211 206 202
159 180 176 157 149 150 161 171 177 191 201 212 223 241 251 252 255 257 261 264 265 266 266 274 288 298 292 282 284 289 288 287 288 289 288 288 288 287 285 282 278 277 277 276 275 273 272 272 271 266 260 256 255 254 254 254 253 251 250 249 244 245 247 246 247 247 245 242 237 234 232 232 233 233 231 232 232 230 227 221 222 223 213 208 204
165 182 177 159 148 145 154 159 160 172 182 190 197 208 225 234 240 247 257 264 269 274 274 272 277 289 291 287 291 292 292 295 295 290 287 284 280 279 279 278 276 275 276 277 277 275 274 271 270 269 265 261 259 259 258 256 254 251 248 244 236 234 242 245 245 244 243 239 233 229 229 229 229 229 230 234 233 229 230 224 221 223 214 208 206
167 177 171 155 146 141 145 146 144 148 153 162 170 182 230 246 252 266 278 281 275 267 265 267 274 287 291 291 296 295 295 298 298 295 290 287 284 281 281 280 278 276 276 277 277 276 275 273 271 270 268 266 264 264 262 258 256 253 248 246 243 241 244 245 239 237 237 234 230 227 227 226 226 228 227 231 232 229 230 227 222 221 214 208 207
164 170 165 153 148 149 150 150 147 145 144 150 166 225 275 277 283 293 287 285 285 274 268 274 282 289 292 293 293 293 296 298 299 298 295 293 292 290 287 284 281 279 277 277 276 274 274 275 275 272 270 268 267 265 264 262 259 254 248 245 245 244 244 245 239 233 226 223 223 225 225 223 223 226 226 229 232 230 229 228 222 217 214 210 208
160 164 162 158 157 157 159 160 158 162 165 173 203 227 244 263 273 279 279 280 288 288 283 281 283 285 288 290 288 288 291 294 298 299 298 298 297 298 296 292 288 285 281 276 273 273 273 272 269 267 267 265 263 262 262 262 259 255 250 244 242 242 241 242 243 240 230 219 217 221 225 224 222 224 226 228 232 231 229 226 222 216 212 211 210
162 164 163 164 163 158 160 161 161 173 183 189 205 214 222 236 247 255 264 272 275 274 275 278 280 282 283 283 281 282 285 291 299 303 303 304 304 304 303 300 297 293 289 282 275 272 270 266 263 262 262 260 258 258 258 258 256 254 252 247 242 239 240 241 242 241 235 224 216 218 221 221 221 224 225 227 230 232 230 225 223 219 214 211 210
167 170 169 170 163 154 156 156 158 176 188 197 209 214 222 231 235 242 252 262 263 257 261 271 278 282 281 279 280 285 290 295 302 306 309 310 310 308 305 303 300 295 291 288 283 278 273 266 262 262 263 261 260 258 257 257 256 254 253 251 243 235 236 239 238 236 231 225 222 223 224 220 219 223 224 225 228 230 229 225 222 219 215 212 211
166 170 175 180 173 165 167 162 160 173 186 197 215 226 233 236 242 251 254 257 260 260 266 274 283 289 290 291 294 298 303 305 307 310 312 311 308 306 305 303 299 294 290 287 284 283 280 273 266 263 262 261 261 261 259 258 257 256 254 251 245 239 236 236 238 237 231 227 226 226 227 225 224 226 227 226 227 228 228 225 222 219 215 213 213